Regional Weather Roundup
Issued by NWS

Home | Current Version | Previous Version | Graphics & Text | Print | Product List | Glossary On
Versions: 1 2 3 4 5 6 7 8 9 10 11 12 13 14 15 16 17 18 19 20 21 22 23 24 25 26 27 28 29 30 31 32 33 34 35 36 37 38 39 40 41 42 43 44 45 46 47 48 49 50
000
ASUS43 KLOT 260700
RWRIL

ILLINOIS REGIONAL WEATHER ROUNDUP
NATIONAL WEATHER SERVICE CHICAGO/ROMEOVILLE IL
100 AM CST WED NOV 26 2014

NOTE: "FAIR" INDICATES FEW OR NO CLOUDS BELOW 12,000 FEET WITH NO
SIGNIFICANT WEATHER AND/OR OBSTRUCTIONS TO VISIBILITY.

* THESE STATIONS ARE NOT UNDER NWS QUALITY CONTROL. THEY ALSO MAY NOT
  REPORT WEATHER SUCH AS PRECIPITATION OR FOG.

ILZ001-002-007-009-015-016-024-260800-
NORTHWEST ILLINOIS

CITY           SKY/WX    TMP DP  RH WIND       PRES   REMARKS
MOLINE         CLEAR     16  12  84 E5        30.12F WCI   9
STERLING*      CLEAR     10   7  85 E6        30.13F WCI   1
$$

ILZ003-004-008-010-011-017-018-260800-
NORTH CENTRAL ILLINOIS

CITY           SKY/WX    TMP DP  RH WIND       PRES   REMARKS
ROCKFORD       PTCLDY    11   7  84 E3        30.18F
$$

ILZ005-006-012>014-019>023-260800-
NORTHEAST ILLINOIS

CITY           SKY/WX    TMP DP  RH WIND       PRES   REMARKS
CHICAGO-OHARE  CLOUDY    21  17  84 SW6       30.17F WCI  13
CHICAGO-MIDWAY CLOUDY    24  18  77 S7        30.18F WCI  16
AURORA         CLEAR     13   9  84 CALM      30.17F FOG
WAUKEGAN       CLEAR     12   9  87 CALM      30.17F FOG
DUPAGE AIRPORT CLEAR     17  13  84 CALM      30.16F FOG
WHEELING       MOCLDY    20  16  84 CALM      30.19F
NORTHERLY ISL    N/A     23  18  81 S5          N/A  WCI  17
$$

LMZ740>746-260800-
SOUTHERN LAKE MICHIGAN

STATION/POSITION SKY/WX   TEMP    WIND        PRES    VSBY  WAVE
                          AIR SEA DIR/SP/G                  HT/PER
                          (F)     (DEG/KT/KT) (MB)    (MI)  (FT/S)
SOUTHERN BUOY              28 42  200/ 12/ 17 1022.7F         2/ 6
WAUKEGAN HARBOR            20     250/  5/  6   N/A
HARRISON CRIB              22     190/  8/ 11   N/A
BURNHAM HARBOR             23     180/  6/  9   N/A
CALUMET HARBOR             24     200/  4/  6 1020.6F
MICHIGAN CITY              23     180/  8/ 10   N/A
$$

ILZ025>027-034>036-040-047-049-050-058-095>099-260800-
WEST-CENTRAL ILLINOIS

CITY           SKY/WX    TMP DP  RH WIND       PRES   REMARKS
QUINCY         PTCLDY    25  20  81 SE6       30.08F WCI  18
$$

ILZ028>032-037-038-041>044-048-051>054-059>061-260800-
CENTRAL ILLINOIS

CITY           SKY/WX    TMP DP  RH WIND       PRES   REMARKS
DECATUR        CLEAR     23  22  96 CALM      30.15F
PEORIA         FAIR      22  17  81 CALM      30.14F
SPRINGFIELD    CLEAR     25  22  88 SE5       30.14F WCI  19
TAYLORVILLE    NOT AVBL
$$

ILZ033-039-045-046-055>057-062-063-260800-
EAST-CENTRAL ILLINOIS

CITY           SKY/WX    TMP DP  RH WIND       PRES   REMARKS
CHAMPAIGN      CLEAR     20  17  88 E7        30.16F WCI  11
MATTOON        CLEAR     24  21  88 SE3       30.14F
$$

ILZ079-100>102-260800-
SOUTHWEST ILLINOIS

CITY           SKY/WX    TMP DP  RH WIND       PRES   REMARKS
CAHOKIA*       CLEAR     28  24  85 SE3       30.14F
$$

ILZ064>066-069>071-074>076-080>082-084>086-088>090-092>094-260800-
SOUTH-CENTRAL ILLINOIS

CITY           SKY/WX    TMP DP  RH WIND       PRES   REMARKS
CARBONDALE     CLEAR     22  19  89 CALM      30.16F
MT. VERNON     CLEAR     19  14  79 CALM      30.16F
$$

ILZ067-068-072-073-078-083-087-091-260800-
SOUTHEAST ILLINOIS

CITY           SKY/WX    TMP DP  RH WIND       PRES   REMARKS
LAWRENCEVILLE  CLEAR     27  24  89 NE3       30.18F
$$

ABBREVIATIONS USED IN REMARKS
   TC - TEMPERATURE IN CELSIUS
  WCI - WIND CHILL INDEX
   HX - HEAT INDEX
  VSB - VISIBILITY
$$




USA.gov is the U.S. government's official web portal to all federal, state and local government web resources and services.